Time,TemperatureF,DewpointF,PressureIn,WindDirection,WindDirectionDegrees,WindSpeedMPH,WindSpeedGustMPH,Humidity,HourlyPrecipIn,Conditions,Clouds,dailyrainin,SoftwareType,DateUTC
2013-05-15 00:03:00,55.0,41.0,29.37,SSE,158,9.0,13.0,58,0.00,,,0.00,,2013-05-15 04:03:00,
2013-05-15 00:12:00,55.0,41.0,29.37,SSE,158,9.0,13.0,58,0.00,,,0.00,,2013-05-15 04:12:00,
2013-05-15 00:24:00,55.0,41.0,29.36,SSW,202,8.0,15.0,59,0.00,,,0.00,,2013-05-15 04:24:00,
2013-05-15 00:33:00,55.0,41.0,29.37,SE,141,5.0,15.0,59,0.00,,,0.00,,2013-05-15 04:33:00,
2013-05-15 00:42:00,55.0,41.0,29.37,SE,141,5.0,15.0,59,0.00,,,0.00,,2013-05-15 04:42:00,
2013-05-15 00:52:00,54.0,40.0,29.42,North,0,2.0,3.0,59,0.00,,,0.00,,2013-05-15 04:52:00,
2013-05-15 01:02:00,54.0,40.0,29.42,North,0,2.0,3.0,59,0.00,,,0.00,,2013-05-15 05:02:00,
2013-05-15 01:12:00,54.0,40.0,29.42,North,0,2.0,3.0,59,0.00,,,0.00,,2013-05-15 05:12:00,
2013-05-15 01:22:00,54.0,40.0,29.41,West,270,1.0,3.0,60,0.00,,,0.00,,2013-05-15 05:22:00,
2013-05-15 01:32:00,55.0,42.0,29.41,WSW,246,3.0,8.0,61,0.00,,,0.00,,2013-05-15 05:32:00,
2013-05-15 01:42:00,55.0,42.0,29.41,WSW,246,3.0,8.0,61,0.00,,,0.00,,2013-05-15 05:42:00,
2013-05-15 01:52:00,56.0,43.0,29.39,West,270,7.0,10.0,61,0.00,,,0.00,,2013-05-15 05:52:00,
2013-05-15 02:02:00,56.0,43.0,29.40,WSW,245,1.0,10.0,61,0.00,,,0.00,,2013-05-15 06:02:00,
2013-05-15 02:11:00,56.0,43.0,29.40,WSW,245,1.0,10.0,61,0.00,,,0.00,,2013-05-15 06:11:00,
2013-05-15 02:21:00,56.0,44.0,29.40,SSW,213,4.0,6.0,63,0.00,,,0.00,,2013-05-15 06:21:00,
2013-05-15 02:32:00,57.0,45.0,29.41,WSW,248,2.0,6.0,63,0.00,,,0.00,,2013-05-15 06:32:00,
2013-05-15 02:41:00,57.0,45.0,29.41,WSW,248,2.0,6.0,63,0.00,,,0.00,,2013-05-15 06:41:00,
2013-05-15 02:52:00,58.0,45.0,29.41,West,270,4.0,6.0,62,0.00,,,0.00,,2013-05-15 06:52:00,
2013-05-15 03:01:00,58.0,45.0,29.41,West,270,2.0,7.0,62,0.00,,,0.00,,2013-05-15 07:01:00,
2013-05-15 03:11:00,58.0,45.0,29.41,West,270,2.0,7.0,62,0.00,,,0.00,,2013-05-15 07:11:00,
2013-05-15 03:21:00,58.0,45.0,29.41,ESE,112,2.0,7.0,61,0.00,,,0.00,,2013-05-15 07:21:00,
2013-05-15 03:32:00,58.0,45.0,29.42,SSW,193,3.0,5.0,61,0.00,,,0.00,,2013-05-15 07:32:00,
2013-05-15 03:41:00,58.0,45.0,29.42,SSW,193,3.0,5.0,61,0.00,,,0.00,,2013-05-15 07:41:00,
2013-05-15 03:52:00,58.0,45.0,29.43,WNW,292,4.0,12.0,61,0.00,,,0.00,,2013-05-15 07:52:00,
2013-05-15 04:02:00,58.0,44.0,29.43,West,264,2.0,6.0,60,0.00,,,0.00,,2013-05-15 08:02:00,
2013-05-15 04:12:00,58.0,44.0,29.43,West,264,2.0,6.0,60,0.00,,,0.00,,2013-05-15 08:12:00,
2013-05-15 04:21:00,57.0,43.0,29.43,West,261,2.0,5.0,60,0.00,,,0.00,,2013-05-15 08:21:00,
2013-05-15 04:32:00,58.0,44.0,29.44,NW,315,7.0,9.0,59,0.00,,,0.00,,2013-05-15 08:32:00,
2013-05-15 04:42:00,58.0,43.0,29.44,WSW,249,6.0,8.0,58,0.00,,,0.00,,2013-05-15 08:42:00,
2013-05-15 04:53:00,58.0,43.0,29.44,WSW,249,6.0,8.0,58,0.00,,,0.00,,2013-05-15 08:53:00,
2013-05-15 05:01:00,58.0,43.0,29.46,WNW,291,6.0,9.0,58,0.00,,,0.00,,2013-05-15 09:01:00,
2013-05-15 05:11:00,58.0,43.0,29.46,WNW,291,6.0,9.0,58,0.00,,,0.00,,2013-05-15 09:11:00,
2013-05-15 05:21:00,57.0,42.0,29.47,West,270,8.0,8.0,58,0.00,,,0.00,,2013-05-15 09:21:00,
2013-05-15 05:33:00,57.0,43.0,29.49,West,275,5.0,8.0,59,0.00,,,0.00,,2013-05-15 09:33:00,
2013-05-15 05:42:00,57.0,43.0,29.49,West,275,5.0,8.0,59,0.00,,,0.00,,2013-05-15 09:42:00,
2013-05-15 05:53:00,56.0,42.0,29.50,WSW,254,4.0,7.0,60,0.00,,,0.00,,2013-05-15 09:53:00,
2013-05-15 06:02:00,56.0,43.0,29.52,NW,307,6.0,10.0,61,0.00,,,0.00,,2013-05-15 10:02:00,
2013-05-15 06:12:00,56.0,43.0,29.52,NW,307,6.0,10.0,61,0.00,,,0.00,,2013-05-15 10:12:00,
2013-05-15 06:22:00,55.0,43.0,29.53,WNW,285,2.0,8.0,63,0.00,,,0.00,,2013-05-15 10:22:00,
2013-05-15 06:32:00,55.0,43.0,29.54,NW,316,5.0,9.0,64,0.00,,,0.00,,2013-05-15 10:32:00,
2013-05-15 06:42:00,55.0,43.0,29.54,NW,316,5.0,9.0,64,0.00,,,0.00,,2013-05-15 10:42:00,
2013-05-15 06:52:00,54.0,43.0,29.54,WNW,290,2.0,12.0,65,0.00,,,0.00,,2013-05-15 10:52:00,
2013-05-15 07:08:00,54.0,43.0,29.55,West,262,8.0,20.0,66,0.00,,,0.00,,2013-05-15 11:08:00,
2013-05-15 07:26:00,54.0,43.0,29.56,WNW,294,3.0,20.0,66,0.00,,,0.00,,2013-05-15 11:26:00,
2013-05-15 07:35:00,54.0,43.0,29.57,WNW,298,6.0,7.0,66,0.00,,,0.00,,2013-05-15 11:35:00,
2013-05-15 07:47:00,54.0,43.0,29.57,WNW,298,6.0,7.0,66,0.00,,,0.00,,2013-05-15 11:47:00,
2013-05-15 07:59:00,54.0,43.0,29.57,NNW,331,5.0,7.0,66,0.00,,,0.00,,2013-05-15 11:59:00,
2013-05-15 08:06:00,56.0,44.0,29.58,WNW,292,3.0,8.0,64,0.00,,,0.00,,2013-05-15 12:06:00,
2013-05-15 08:27:00,60.0,46.0,29.58,WNW,285,9.0,12.0,59,0.00,,,0.00,,2013-05-15 12:27:00,
2013-05-15 08:35:00,61.0,46.0,29.59,West,278,6.0,14.0,57,0.00,,,0.00,,2013-05-15 12:35:00,
2013-05-15 08:46:00,61.0,46.0,29.59,West,278,6.0,14.0,57,0.00,,,0.00,,2013-05-15 12:46:00,
2013-05-15 08:57:00,62.0,46.0,29.59,WNW,283,9.0,14.0,55,0.00,,,0.00,,2013-05-15 12:57:00,
2013-05-15 09:58:00,72.0,48.0,29.61,WNW,296,10.0,10.0,42,0.00,,,0.00,,2013-05-15 13:58:00,
2013-05-15 10:05:00,70.0,46.0,29.62,West,275,3.0,10.0,43,0.00,,,0.00,,2013-05-15 14:05:00,
2013-05-15 10:25:00,68.0,46.0,29.62,NW,315,4.0,10.0,45,0.00,,,0.00,,2013-05-15 14:25:00,
2013-05-15 10:36:00,68.0,46.0,29.63,NNW,343,7.0,8.0,45,0.00,,,0.00,,2013-05-15 14:36:00,
2013-05-15 10:45:00,68.0,46.0,29.63,NNW,343,7.0,8.0,45,0.00,,,0.00,,2013-05-15 14:45:00,
2013-05-15 10:58:00,68.0,45.0,29.63,WNW,301,9.0,9.0,44,0.00,,,0.00,,2013-05-15 14:58:00,
2013-05-15 11:08:00,68.0,45.0,29.64,NW,304,9.0,14.0,44,0.00,,,0.00,,2013-05-15 15:08:00,
2013-05-15 11:15:00,68.0,45.0,29.64,NW,304,9.0,14.0,44,0.00,,,0.00,,2013-05-15 15:15:00,
2013-05-15 11:27:00,68.0,46.0,29.64,West,270,2.0,8.0,45,0.00,,,0.00,,2013-05-15 15:27:00,
2013-05-15 11:36:00,69.0,46.0,29.64,WNW,284,9.0,9.0,44,0.00,,,0.00,,2013-05-15 15:36:00,
2013-05-15 11:47:00,69.0,46.0,29.64,WNW,284,9.0,9.0,44,0.00,,,0.00,,2013-05-15 15:47:00,
2013-05-15 12:00:00,70.0,46.0,29.65,WNW,292,7.0,10.0,42,0.00,,,0.00,,2013-05-15 16:00:00,
2013-05-15 12:08:00,70.0,45.0,29.65,West,271,12.0,12.0,41,0.00,,,0.00,,2013-05-15 16:08:00,
2013-05-15 12:20:00,71.0,43.0,29.66,SW,236,5.0,12.0,37,0.00,,,0.00,,2013-05-15 16:20:00,
2013-05-15 12:27:00,71.0,43.0,29.66,SW,236,5.0,12.0,37,0.00,,,0.00,,2013-05-15 16:27:00,
2013-05-15 12:34:00,71.0,44.0,29.66,SW,233,6.0,13.0,38,0.00,,,0.00,,2013-05-15 16:34:00,
2013-05-15 12:47:00,71.0,44.0,29.66,SW,233,6.0,13.0,38,0.00,,,0.00,,2013-05-15 16:47:00,
2013-05-15 12:58:00,72.0,44.0,29.66,West,278,5.0,9.0,37,0.00,,,0.00,,2013-05-15 16:58:00,
2013-05-15 13:08:00,72.0,43.0,29.67,West,273,6.0,15.0,35,0.00,,,0.00,,2013-05-15 17:08:00,
2013-05-15 13:17:00,72.0,43.0,29.67,West,273,6.0,15.0,35,0.00,,,0.00,,2013-05-15 17:17:00,
2013-05-15 13:26:00,72.0,43.0,29.67,NW,315,8.0,10.0,35,0.00,,,0.00,,2013-05-15 17:26:00,
2013-05-15 13:35:00,72.0,41.0,29.67,West,270,6.0,15.0,33,0.00,,,0.00,,2013-05-15 17:35:00,
2013-05-15 13:45:00,72.0,41.0,29.67,West,270,6.0,15.0,33,0.00,,,0.00,,2013-05-15 17:45:00,
2013-05-15 13:58:00,73.0,41.0,29.66,WNW,292,3.0,10.0,32,0.00,,,0.00,,2013-05-15 17:58:00,
2013-05-15 14:04:00,73.0,42.0,29.67,WSW,248,3.0,12.0,33,0.00,,,0.00,,2013-05-15 18:04:00,
2013-05-15 14:14:00,73.0,42.0,29.67,WSW,248,3.0,12.0,33,0.00,,,0.00,,2013-05-15 18:14:00,
2013-05-15 14:26:00,74.0,42.0,29.67,WNW,282,8.0,23.0,32,0.00,,,0.00,,2013-05-15 18:26:00,
2013-05-15 14:35:00,73.0,41.0,29.66,NW,310,9.0,13.0,32,0.00,,,0.00,,2013-05-15 18:35:00,
2013-05-15 14:46:00,73.0,41.0,29.66,NW,310,9.0,13.0,32,0.00,,,0.00,,2013-05-15 18:46:00,
2013-05-15 14:57:00,74.0,42.0,29.67,NW,307,6.0,20.0,32,0.00,,,0.00,,2013-05-15 18:57:00,
2013-05-15 15:06:00,74.0,42.0,29.67,WSW,249,4.0,12.0,32,0.00,,,0.00,,2013-05-15 19:06:00,
2013-05-15 15:36:00,74.0,42.0,29.67,West,270,8.0,13.0,32,0.00,,,0.00,,2013-05-15 19:36:00,
2013-05-15 15:44:00,74.0,42.0,29.67,West,270,8.0,13.0,32,0.00,,,0.00,,2013-05-15 19:44:00,
2013-05-15 15:56:00,74.0,42.0,29.66,West,279,11.0,16.0,32,0.00,,,0.00,,2013-05-15 19:56:00,
2013-05-15 16:06:00,74.0,42.0,29.66,WNW,301,10.0,16.0,32,0.00,,,0.00,,2013-05-15 20:06:00,
2013-05-15 16:16:00,74.0,42.0,29.66,WNW,301,10.0,16.0,32,0.00,,,0.00,,2013-05-15 20:16:00,
2013-05-15 16:27:00,74.0,43.0,29.66,West,270,7.0,9.0,33,0.00,,,0.00,,2013-05-15 20:27:00,
2013-05-15 16:36:00,73.0,42.0,29.66,West,270,7.0,14.0,33,0.00,,,0.00,,2013-05-15 20:36:00,
2013-05-15 16:46:00,73.0,42.0,29.66,West,270,7.0,14.0,33,0.00,,,0.00,,2013-05-15 20:46:00,
2013-05-15 16:56:00,73.0,41.0,29.66,WNW,284,12.0,16.0,32,0.00,,,0.00,,2013-05-15 20:56:00,
2013-05-15 17:07:00,73.0,42.0,29.65,NW,315,8.0,15.0,33,0.00,,,0.00,,2013-05-15 21:07:00,
2013-05-15 17:18:00,73.0,42.0,29.65,NW,315,8.0,15.0,33,0.00,,,0.00,,2013-05-15 21:18:00,
2013-05-15 17:26:00,73.0,42.0,29.65,WNW,303,6.0,10.0,33,0.00,,,0.00,,2013-05-15 21:26:00,
2013-05-15 17:38:00,73.0,42.0,29.65,WNW,299,5.0,10.0,33,0.00,,,0.00,,2013-05-15 21:38:00,
2013-05-15 18:00:00,73.0,42.0,29.66,NNW,338,8.0,14.0,33,0.00,,,0.00,,2013-05-15 22:00:00,
2013-05-15 18:08:00,73.0,42.0,29.66,WNW,294,6.0,14.0,33,0.00,,,0.00,,2013-05-15 22:08:00,
2013-05-15 18:16:00,73.0,42.0,29.66,WNW,294,6.0,14.0,33,0.00,,,0.00,,2013-05-15 22:16:00,
2013-05-15 18:27:00,73.0,42.0,29.66,West,276,10.0,18.0,33,0.00,,,0.00,,2013-05-15 22:27:00,
2013-05-15 18:37:00,72.0,41.0,29.66,West,275,7.0,12.0,33,0.00,,,0.00,,2013-05-15 22:37:00,
2013-05-15 18:47:00,72.0,41.0,29.66,West,275,7.0,12.0,33,0.00,,,0.00,,2013-05-15 22:47:00,
2013-05-15 18:59:00,72.0,42.0,29.66,NW,324,12.0,14.0,34,0.00,,,0.00,,2013-05-15 22:59:00,
2013-05-15 19:06:00,72.0,42.0,29.66,WNW,290,6.0,9.0,34,0.00,,,0.00,,2013-05-15 23:06:00,
2013-05-15 19:14:00,72.0,42.0,29.66,WNW,290,6.0,9.0,34,0.00,,,0.00,,2013-05-15 23:14:00,
2013-05-15 19:27:00,72.0,41.0,29.67,NNW,327,6.0,9.0,33,0.00,,,0.00,,2013-05-15 23:27:00,
2013-05-15 19:37:00,71.0,41.0,29.67,NW,315,4.0,9.0,34,0.00,,,0.00,,2013-05-15 23:37:00,
2013-05-15 19:47:00,71.0,41.0,29.67,NW,315,4.0,9.0,34,0.00,,,0.00,,2013-05-15 23:47:00,
2013-05-15 20:00:00,71.0,41.0,29.67,WNW,292,4.0,10.0,34,0.00,,,0.00,,2013-05-16 00:00:00,
2013-05-15 20:05:00,71.0,42.0,29.67,WNW,286,3.0,10.0,35,0.00,,,0.00,,2013-05-16 00:05:00,
2013-05-15 20:16:00,71.0,42.0,29.67,WNW,286,3.0,10.0,35,0.00,,,0.00,,2013-05-16 00:16:00,
2013-05-15 20:25:00,70.0,41.0,29.67,WNW,298,7.0,9.0,35,0.00,,,0.00,,2013-05-16 00:25:00,
2013-05-15 20:35:00,70.0,41.0,29.68,WNW,298,6.0,9.0,35,0.00,,,0.00,,2013-05-16 00:35:00,
2013-05-15 20:47:00,69.0,41.0,29.67,West,275,5.0,8.0,36,0.00,,,0.00,,2013-05-16 00:47:00,
2013-05-15 20:58:00,69.0,41.0,29.67,West,275,5.0,8.0,36,0.00,,,0.00,,2013-05-16 00:58:00,
2013-05-15 21:05:00,69.0,41.0,29.68,West,278,3.0,7.0,36,0.00,,,0.00,,2013-05-16 01:05:00,
2013-05-15 21:15:00,68.0,40.0,29.68,NW,307,1.0,6.0,36,0.00,,,0.00,,2013-05-16 01:15:00,
2013-05-15 21:27:00,68.0,40.0,29.68,NW,307,1.0,6.0,36,0.00,,,0.00,,2013-05-16 01:27:00,
2013-05-15 21:35:00,67.0,40.0,29.68,NW,308,2.0,3.0,37,0.00,,,0.00,,2013-05-16 01:35:00,
2013-05-15 21:47:00,67.0,40.0,29.68,NW,308,2.0,3.0,37,0.00,,,0.00,,2013-05-16 01:47:00,
2013-05-15 21:59:00,66.0,39.0,29.69,West,273,1.0,3.0,37,0.00,,,0.00,,2013-05-16 01:59:00,
2013-05-15 22:07:00,65.0,39.0,29.69,West,281,2.0,3.0,38,0.00,,,0.00,,2013-05-16 02:07:00,
2013-05-15 22:15:00,65.0,39.0,29.69,West,281,2.0,3.0,38,0.00,,,0.00,,2013-05-16 02:15:00,
2013-05-15 22:26:00,65.0,39.0,29.70,WNW,298,1.0,3.0,38,0.00,,,0.00,,2013-05-16 02:26:00,
2013-05-15 22:36:00,65.0,39.0,29.70,WNW,298,1.0,3.0,38,0.00,,,0.00,,2013-05-16 02:36:00,
2013-05-15 22:45:00,65.0,39.0,29.70,WNW,298,1.0,3.0,38,0.00,,,0.00,,2013-05-16 02:45:00,
2013-05-15 22:55:00,65.0,39.0,29.70,WNW,298,1.0,3.0,38,0.00,,,0.00,,2013-05-16 02:55:00,
2013-05-15 23:06:00,64.0,39.0,29.70,WSW,255,3.0,3.0,40,0.00,,,0.00,,2013-05-16 03:06:00,
2013-05-15 23:16:00,64.0,39.0,29.70,WSW,255,3.0,3.0,40,0.00,,,0.00,,2013-05-16 03:16:00,
2013-05-15 23:25:00,64.0,39.0,29.70,NW,320,5.0,6.0,40,0.00,,,0.00,,2013-05-16 03:25:00,
2013-05-15 23:35:00,63.0,39.0,29.70,West,281,1.0,5.0,41,0.00,,,0.00,,2013-05-16 03:35:00,
2013-05-15 23:44:00,63.0,39.0,29.70,West,281,1.0,5.0,41,0.00,,,0.00,,2013-05-16 03:44:00,
2013-05-15 23:56:00,62.0,38.0,29.71,NW,309,0.0,3.0,41,0.00,,,0.00,,2013-05-16 03:56:00,